Terminal Aerodrome Forecast
Issued by NWS

Home | Current Version | Previous Version | Text Only | Print | Product List | Glossary On
Versions: 1 2 3 4 5 6 7 8 9 10 11 12 13 14 15 16 17 18 19 20 21 22 23 24 25 26 27 28 29
000
FTUS41 KBOX 040427 AAA
TAFHYA
TAF AMD
KHYA 040427Z 0404/0424 19015G24KT 3SM -RASN BR OVC003
     FM040600 20016G26KT 4SM -RA BR OVC008
     FM041000 23012G19KT 6SM -RA BR OVC008
     FM041300 25012KT P6SM OVC008
     FM041500 25009KT P6SM OVC015=

USA.gov is the U.S. government's official web portal to all federal, state and local government web resources and services.